Regional Weather Roundup
Issued by NWS

Home | Current Version | Previous Version | Graphics & Text | Print | Product List | Glossary On
Versions: 1 2 3 4 5 6 7 8 9 10 11 12 13 14 15 16 17 18 19 20 21 22 23 24 25 26 27 28 29 30 31 32 33 34 35 36 37 38 39 40 41 42 43 44 45 46 47 48 49 50
802
ASUS44 KMEG 240200
RWRTN
TENNESSEE HOURLY STATE WEATHER ROUNDUP
NATIONAL WEATHER SERVICE MEMPHIS TN
900 PM CDT SUN APR 23 2017

TNZ002-004-019-021-049-052-054-088>092-240300-
WEST TENNESSEE

CITY           SKY/WX    TMP DP  RH WIND       PRES   REMARKS
MEMPHIS INTL   MOCLDY    56  51  84 NW3       29.94R
NWS MEMPHIS      N/A     54 N/A N/A MISG        N/A
JACKSON        RAIN      54  52  93 N6        29.91S
DYERSBURG      PTCLDY    53  52  96 W5        29.93S
PARIS          MOCLDY    52  48  87 N8        29.92R
$$

TNZ008-025-027-028-033-062-065-066-240300-
NORTH MIDDLE TENNESSEE

CITY           SKY/WX    TMP DP  RH WIND       PRES   REMARKS
NASHVILLE      LGT RAIN  53  50  89 N15       29.87R FOG
CLARKSVILLE    CLOUDY    53  48  83 N14       29.91S
SMYRNA         LGT RAIN  53  51  93 N14       29.86R
CROSSVILLE     CLOUDY    53  51  93 E7        29.82R
$$

TNZ061-075-076-078-094-096-097-240300-
SOUTH MIDDLE TENNESSEE

CITY           SKY/WX    TMP DP  RH WIND       PRES   REMARKS
TULLAHOMA      CLOUDY    48  48 100 N7        29.83S
WINCHESTER     CLOUDY    50  50 100 CALM      29.83R
MCMINNVILLE    CLOUDY    52  52 100 CALM      29.82R
COLUMBIA       CLOUDY   N/A N/A N/A N5        29.84S
SHELBYVILLE    CLOUDY    52  52 100 N5        29.85R
$$

TNZ017-018-042-046-047-240300-
NORTHEAST TENNESSEE

CITY           SKY/WX    TMP DP  RH WIND       PRES   REMARKS
TRI CITIES     RAIN      49  47  93 NE7       29.92S
$$

TNZ012-013-036-069-073-074-240300-
CENTRAL EAST TENNESSEE

CITY           SKY/WX    TMP DP  RH WIND       PRES   REMARKS
KNOXVILLE      LGT RAIN  55  53  93 N9        29.81R
OAK RIDGE      CLOUDY    55  52  89 VRB3      29.84R
GATLINBURG     PTCLDY    54  52  94 CALM      29.81R
$$

TNZ083-085-099-240300-
SOUTHEAST TENNESSEE

CITY           SKY/WX    TMP DP  RH WIND       PRES   REMARKS
CHATTANOOGA    MOCLDY    57  54  89 W7        29.80R
$$

SKY/WX REPORTED AS FAIR MEANS FEW OR NO CLOUDS BELOW
12 THOUSAND FEET.





USA.gov is the U.S. government's official web portal to all federal, state and local government web resources and services.